Regional Weather Roundup
Issued by NWS

Home | Current Version | Previous Version | Graphics & Text | Print | Product List | Glossary On
Versions: 1 2 3 4 5 6 7 8 9 10 11 12 13 14 15 16 17 18 19 20 21 22 23 24 25 26 27 28 29 30 31 32 33 34 35 36 37 38 39 40 41 42 43 44 45 46 47 48 49 50
759
ASUS44 KJAN 272310
RWRMS

MISSISSIPPI HOURLY WEATHER ROUNDUP
NATIONAL WEATHER SERVICE JACKSON MS
500 PM CST TUE JAN 27 2015

NOTE: "FAIR: INDICATES FEW OR NO CLOUDS BELOW 12,000 FEET WITH NO
SIGNIFICANT WEATHER AND/OR OBSTRUCTIONS TO VISIBILITY.

MSZ001>002-007>008-010>013-018>021-025>028-034>036-280000-
NORTHWEST MISSISSIPPI

CITY           SKY/WX    TMP DP  RH WIND       PRES   REMARKS
CLARKSDALE     FAIR      55  41  58 NE6       30.15R
CLEVELAND      FAIR      57  41  54 N8        30.13R
GREENWOOD      CLEAR     57  37  47 NW7       30.12R
GREENVILLE     CLEAR     60  39  45 N3        30.13R
GRENADA        FAIR      55  36  47 NW9       30.12R
OXFORD         FAIR      54  32  43 N9        30.14R
TUNICA         CLEAR     52  39  62 N10       30.15S
$$

MSZ003>006-009-014>017-022>024-029>033-037>039-280000-
NORTHEAST MISSISSIPPI

CITY           SKY/WX    TMP DP  RH WIND       PRES   REMARKS
COLUMBUS AFB   CLEAR     55  32  41 N8        30.09R
CORINTH        FAIR      52  30  43 N8        30.11R
GOLDN TRIANGLE CLEAR     55  36  47 N9        30.08R
STARKVILLE     FAIR      55  34  44 N3        30.09R
TUPELO         CLEAR     54  31  41 N10       30.10R
$$

MSZ040-058-280000-
CENTRAL MISSISSIPPI

CITY           SKY/WX    TMP DP  RH WIND       PRES   REMARKS
JACKSON INTL   CLEAR     64  31  28 NW10      30.09R
JACKSON HAWKNS CLEAR     63  30  28 N8        30.10S
MERIDIAN KEY   CLEAR     61  31  32 N7        30.07R
MERIDIAN NAS   CLEAR     61  31  32 NW8       30.08R
RAYMOND        FAIR      64  59  82 NW7       30.11R
VICKSBURG      CLEAR     64  37  36 NW8       30.12S
$$

MSZ059>079-280000-
SOUTH MISSISSIPPI

CITY           SKY/WX    TMP DP  RH WIND       PRES   REMARKS
BROOKHAVEN     FAIR      66  32  28 CALM      30.11R
HATTIESBURG    CLEAR     67  30  25 NW12      30.08R
MCCOMB         CLEAR     69  34  27 NW7       30.09R
NATCHEZ        CLEAR     66  37  34 NW5       30.12S
PINE BELT      CLEAR     66  30  26 NW6       30.09R
$$

MSZ080>082-280000-
COASTAL MISSISSIPPI

CITY           SKY/WX    TMP DP  RH WIND       PRES   REMARKS
BAY ST LOUIS   CLEAR     68  27  21 N8        30.07R
BILOXI         CLEAR     69  36  30 VRB3      30.06R
PASCAGOULA     CLEAR     68  33  27 NW7       30.05R
GULFPORT       CLEAR     68  36  30 NW8       30.06R
$$



USA.gov is the U.S. government's official web portal to all federal, state and local government web resources and services.